Regional Weather Roundup
Issued by NWS Wakefield, VA

Home | Current Version | Previous Version | Text Only | Print | Product List | Glossary Off
Versions: 1 2 3 4 5 6 7 8 9 10 11 12 13 14 15 16 17 18 19 20 21 22 23 24 25 26 27 28 29 30 31 32 33 34 35 36 37 38 39 40 41 42 43 44 45 46 47 48 49 50

000
ASUS41 KAKQ 271215
RWRAKQ

REGIONAL WEATHER ROUNDUP
NATIONAL WEATHER SERVICE WAKEFIELD VA
800 AM EDT WED MAY 27 2015

Note: "fair" indicates few or no clouds below 12,000 feet with no
significant weather and/or obstructions to visibility. * = Denotes
station may not report precipitation (e.g., rain,snow,etc.),
thunder or fog.

VAZ042-051-052>054-056-271300-
NORTHERN VIRGINIA

CITY           SKY/WX    TMP DP  RH WIND       PRES   REMARKS
WASH NATIONAL  CLOUDY    76  69  79 S12       30.18R
DULLES         CLOUDY    74  68  81 S12       30.16R
FORT BELVOIR   CLOUDY    74  69  83 VRB5      30.17R
QUANTICO       PTSUNNY   74  68  81 S12       30.18R
FREDERICKSBRG* MOSUNNY   76  71  84 S9        30.17R
STAFFORD*      CLOUDY    73  67  82 S6        30.21S
WARRENTON      CLOUDY    74  71  88 S8        30.17R
CULPEPER*      CLOUDY    73  68  84 S7        30.18R
MANASSAS*      CLOUDY    75  72  88 S8          N/A
LEESBURG*      CLOUDY    73  72  94 S7        30.18R
WINCHESTER     MOSUNNY   73  64  73 CALM      30.16R
FRONT ROYAL*   FAIR      70  66  88 CALM      30.15R
LURAY*         FAIR      73  70  88 SW7       30.16S
$$

VAZ048-049-060>072-079>083-271300-
CENTRAL AND SOUTH CENTRAL VIRGINIA

CITY           SKY/WX    TMP DP  RH WIND       PRES   REMARKS
RICHMOND       MOSUNNY   75  68  78 S13       30.20R
CHESTERFIELD*  NOT AVBL
PETERSBURG*    PTSUNNY   75  74  96 S5        30.22R
HANOVER        MOSUNNY   74  68  81 S13       30.21R
TAPPAHANNOCK*  PTSUNNY   74  65  72 S12       30.20S
QUINTON*       CLOUDY    73  69  86 SW6       30.21R
CHARLOTTSVILLE PTSUNNY   73  68  84 S10       30.18R
GORDONSVILLE*  CLOUDY    72  68  89 S8        30.17R
ORANGE*        CLOUDY    72  68  88 S6        30.20R
LOUISA*        MOSUNNY   73  70  88 S8        30.18R
BUMPASS*       PTSUNNY   73  69  86 S5        30.18S
FARMVILLE*     SUNNY     74  66  76 S7        30.19R
CREWE*         FAIR      74  68  81 S5        30.21R
FORT PICKETT*  NOT AVBL
CHASE CITY*    FAIR      75  71  86 CALM      30.24R
CLARKSVILLE*   FAIR      72  68  88 SW7       30.23R
SOUTH HILL*    MOSUNNY   71  68  93 CALM      30.28R
LAWRENCEVILLE* PTSUNNY   72  70  94 S6        30.23R
EMPORIA*       CLOUDY    72  68  88 SE7       30.24R
$$

VAZ088>098-271300-
SOUTHEAST VIRGINIA

CITY           SKY/WX    TMP DP  RH WIND       PRES   REMARKS
NORFOLK        MOSUNNY   76  66  71 S16       30.22S
VIRGINIA BEACH PTSUNNY   76  67  73 S12       30.23R
NORFOLK NAVAL  MOSUNNY   79  67  66 SW10G18   30.24R
WEST POINT*    CLOUDY    75  68  77 S5        30.23R
SALUDA*        CLOUDY    73  68  84 SW9G21    30.20S
NEWPORT NEWS   PTSUNNY   78  68  71 S9        30.23R
LANGLEY AFB    SUNNY     74  68  81 S14       30.21R
FORT EUSTIS    CLOUDY    73  73 100 S8        30.21R
WILLIAMSBURG*  SUNNY     75  70  83 S6        30.23S
HR EXEC AP*    FAIR      73  66  78 S10       30.25S
FRANKLIN*      PTSUNNY   73  68  84 S10       30.24R
WAKEFIELD      CLOUDY    74  69  85 VRB6      30.22S
$$

VAZ020-022-025-037-045-271300-
WEST CENTRAL AND SOUTHWEST VIRGINIA

CITY           SKY/WX    TMP DP  RH WIND       PRES   REMARKS
STAUNTON*      MOSUNNY   69  67  95 CALM      30.21R
WAYNESBORO*    FAIR      70  66  86 W3        30.21R
HOT SPRINGS VA PTSUNNY   64  63  95 SW10      30.28S
LYNCHBURG      MOSUNNY   70  65  84 S10       30.23R
DANVILLE       MOSUNNY   71  64  78 SW10      30.24R
SOUTH BOSTON*  FAIR      73  65  76 MISG      30.23R
MARTINSVILLE   PTSUNNY   67  67 100 SW5       30.27R
ROANOKE        PTSUNNY   70  62  76 CALM      30.23R
BLACKSBURG     PTSUNNY   65  63  91 CALM      30.29R
DUBLIN*        PTSUNNY   67  66  97 CALM      30.28R
MARION*        CLOUDY    68  63  85 W9        30.31R
HILLSVILLE*    PTSUNNY   62  61  97 SE3       30.29R
RICHLANDS*     PTSUNNY   64  60  87 SW8       30.29R
WISE*          MOSUNNY   64  59  82 S8        30.28F
ABINGDON*      CLOUDY    67  65  94 CALM      30.28R
$$

MDZ021>025-VAZ099-100-271300-
SOUTHERN MARYLAND AND THE DELMARVA PENINSULA

CITY           SKY/WX    TMP DP  RH WIND       PRES   REMARKS
PATUXENT RIVER PTSUNNY   74  68  81 SW10      30.19R
BAY BRIDGE APT   N/A    N/A N/A N/A S9G17     30.18S
LEONARDTOWN    PTSUNNY   72  66  83 SW9       30.21R
DOVER          SUNNY     75  72  92 S16       30.16R
GEORGETOWN     PTSUNNY   74  68  81 SW12      30.22R
EASTON         PTSUNNY   75  75 100 SW12      30.23R
CAMBRIDGE      PTSUNNY   73  68  83 S10       30.20R
SALISBURY      CLOUDY    72  67  84 S8        30.22R
OCEAN CITY     SUNNY     69  64  84 S9        30.23R
WALLOPS ISLAND SUNNY     70  67  90 S14       30.23S
ACCOMACK*      SUNNY     73  68  83 S8        30.22S
$$

NCZ012>017-030>032-271300-
NORTH CENTRAL AND EASTERN NORTH CAROLINA

CITY           SKY/WX    TMP DP  RH WIND       PRES   REMARKS
ROANOKE RAPIDS CLOUDY    72  70  94 S9        30.24R
RALEIGH        PTSUNNY   73  69  87 SW10      30.25R
ELIZABETH CITY PTSUNNY   74  67  78 S9        30.26R
AHOSKIE*       PTSUNNY   73  68  86 CALM      30.25R
EDENTON*       CLOUDY    74  68  82 S9        30.25S
CURRITUCK*     MOSUNNY   75  65  71 S5        30.26R
KILL DEVIL HLS MOSUNNY   74  66  74 S7        30.26S
MANTEO         MOSUNNY   74  65  74 S14       30.28R
CAPE HATTERAS  MOSUNNY   74  63  68 S12       30.29S
TARBORO*       FAIR      74  69  85 S6        30.25R
GOLDSBORO      MOSUNNY   73  70  92 S2        30.23R
WASHINGTON     CLOUDY    72  68  87 S6        30.26R
GREENVILLE     PTSUNNY   75  70  83 S9        30.26R
NEW BERN       PTSUNNY   76  68  76 S6        30.27R
WILMINGTON     SUNNY     77  69  76 S7        30.25R
$$

VAZ048-271300-
ELSEWHERE

CITY           SKY/WX    TMP DP  RH WIND       PRES   REMARKS
HARRISBURG PA  PTSUNNY   74  67  78 SW10      30.14R
BALTIMORE      PTSUNNY   74  68  81 S6        30.16R
ANNAPOLIS      CLOUDY    73  67  81 S6        30.17S
ANDREWS AFB    CLOUDY    73  69  87 S10G18    30.17R
PHILADELPHIA   CLOUDY    74  67  78 S10       30.17S
HENDERSON NC   SUNNY     71  67  86 S8        30.25R
GREENSBORO     PTSUNNY   69  64  84 SW8       30.25R
ROCKY MOUNT    CLOUDY    74  70  87 S8        30.25R
$$

VAZ100-271300-
MARINE

STATION/POSITION TIME  TEMP    WIND        PRES    WAVE   SWELL
                       AIR SEA DIR/SP/G            HT/PER HT/PER
                 (UTC) (F)     (DEG/KT/KT) (MB)    (FT/S) (FT/S)
BRANDYWINE LGT   1100   68 65  200/ 12/ 13 1022.5R
CAPE MAY NJ      1100   66 69  160/  6/  9 1022.3R
LEWES DE         1100   72 63  200/  6/  9 1022.3R
15NM E FENWICK I 1150   64 61              1023.3R   3/ 5
OCEAN-CITY-INLET 1100   62 61  200/ 10/ 12 1023.0R
WACHAPREAGUE VA  1100   71 72  210/  9/ 12 1023.4R
THOMAS POINT MD  1200   70 68  170/ 14/ 15 1022.4R
GOOSES REEF MD   1200   70 68  180/ 12/ 14 1023.1R   1/ 2
COVE POINT MD    1100   69     180/  9/ 10 1022.8R
SOLOMONS ISLAND  1100      71                N/A
BISHOPS HEAD MD  1100   71 72  190/ 14/ 17 1022.4R
PINEY POINT MD   1100          200/  8/ 10   N/A
CAMBRIDGE MD     1100   72 71  180/  7/ 12 1022.2R
LEWISETTA VA     1100   72 73              1021.9R
RAPPAHANNOCK LGT 1100          180/ 15/ 17 1023.6R
STINGRAY PT      1200   73 70  210/ 12/ 16 1022.8R   1/ 2
YORK RVR RNG VA  1100   72     210/ 10/ 11 1022.5R
YORKTOWN VA      1100   72 71  200/  8/ 12 1022.7R
JAMESTOWN VA     1200   72 75  220/  8/ 14 1022.3R
DOMINION TERM VA 1100   71     200/ 13/ 15 1023.2R
KIPTOPEKE VA     1100      74  170/ 10/ 12   N/A
CHES BAY BRIDGE  1100   72 64  180/ 13/ 15 1022.9R
CAPE HENRY VA    1100   72     190/ 10/ 14 1022.2R
CHESAPEAKE LGHT  1100   67     180/ 22/ 22 1023.8F
WILLOUBY STN VA  1100   72     190/ 17/ 19 1023.7R
CAPE HENRY BUOY  1128      62                N/A     3/ 6
1ST LANDING BUOY 1200      69              1023.1R
CAPE CHARLES BUO 1126      65                N/A     2/ 6   2/ 6
OFFSHORE WE BUOY 1111      65                N/A     3/ 5   2/ 8
64NM E OF VA BCH 1150   66 63  170/ 10/ 10 1025.0R   3/ 5   3/ 5
DUCK PIER NC     1100   72 57  180/ 11/ 16 1023.5R
44100 DUCK FRF   1124      63                N/A     3/ 6
44056 DUCK FRF   1111      61                N/A     2/ 5
OREGON INLET NC  1100   73 75  180/ 11/ 14 1025.1R
HATTERAS NC      1100   74 75  170/  7/ 10 1024.9R
DIAMOND SHLS NC  1150   75 76  170/ 10/ 14 1025.8R   3/ 5   2/ 7
CAPE LOOKOUT NC  1200   75     160/  7/  7 1024.7S
$$


USA.gov is the U.S. government's official web portal to all federal, state and local government web resources and services.